Lebanon, NH

1:30 PM EDT on May 21, 2018 (GMT -0400)
Lebanon Municipal

Weather History for KLEB - August, 2013

Change the Weather History Date:

Wednesday, August 21, 2013

  Actual Average Record
Temperature  
Mean Temperature 72 °F -  
Max Temperature 89 °F 78 °F 93 °F (1937)
Min Temperature 57 °F 52 °F 40 °F (1926)
Cooling Degree Days 8    
Growing Degree Days 22 (Base 50)    
Moisture  
Dew Point 60 °F    
Average Humidity 85    
Maximum Humidity 100    
Minimum Humidity 40    
Precipitation  
Precipitation 0.00 in - - ()
Sea Level Pressure  
Sea Level Pressure 30.11 in    
Wind  
Wind Speed 1 mph (SSW)    
Max Wind Speed 8 mph    
Max Gust Speed -    
Visibility 4 miles    
Events Fog    
Averages and records for this station are not official NWS values.
T = Trace of Precipitation, MM = Missing Value Source: NWS Daily Summary

Daily Weather History Graph

Daily Weather History Graph

Search for Another Location

Airport or City:

Astronomy

Aug. 21, 2013 Rise Set
Actual Time 6:00 AM EDT 7:42 PM EDT
Civil Twilight 5:30 AM EDT 8:13 PM EDT
Nautical Twilight 4:53 AM EDT 8:50 PM EDT
Astronomical Twilight 4:13 AM EDT 9:29 PM EDT
Moon 7:45 PM EDT 6:40 AM EDT
Length of Visible Light 14h 42m
Length of Day
13h 42m
Full, 100% of the Moon is Illuminated
Aug 21
Full
Aug 28
Last Quarter
Sep 5
New
Sep 12
First Quarter
Sep 19
Full

Hourly Weather History & Observations

Time (EDT) Temp. Heat Index Dew Point Humidity Pressure Visibility Wind Dir Wind Speed Gust Speed Precip Events Conditions
12:28 AM 62.6 °F - 60.8 °F 94% 30.11 in 1.2 mi Calm Calm - N/A   Clear
12:39 AM 62.6 °F - 59.0 °F 88% 30.12 in 2.0 mi Calm Calm - N/A   Clear
12:44 AM 60.8 °F - 59.0 °F 94% 30.11 in 1.2 mi Calm Calm - N/A   Partly Cloudy
12:51 AM 60.8 °F - 59.0 °F 94% 30.12 in 1.0 mi Calm Calm - N/A   Mist
12:53 AM 60.1 °F - 59.0 °F 96% 30.09 in 1.0 mi Calm Calm - N/A   Mist
12:55 AM 60.8 °F - 59.0 °F 94% 30.12 in 2.0 mi Calm Calm - N/A   Clear
1:22 AM 60.8 °F - 59.0 °F 94% 30.12 in 1.2 mi Calm Calm - N/A   Clear
1:33 AM 60.8 °F - 59.0 °F 94% 30.12 in 2.5 mi Calm Calm - N/A   Clear
1:41 AM 60.8 °F - 57.2 °F 88% 30.12 in 3.0 mi Calm Calm - N/A   Clear
1:49 AM 60.8 °F - 57.2 °F 88% 30.12 in 2.5 mi Calm Calm - N/A   Clear
1:53 AM 60.1 °F - 57.9 °F 93% 30.10 in 2.5 mi Calm Calm - N/A   Clear
2:18 AM 59.0 °F - 57.2 °F 94% 30.13 in 1.0 mi Calm Calm - N/A   Clear
2:45 AM 59.0 °F - 57.2 °F 94% 30.13 in 0.8 mi Calm Calm - N/A   Mist
2:53 AM 59.0 °F - 57.0 °F 93% 30.10 in 0.5 mi Calm Calm - N/A Fog Fog
3:00 AM 57.2 °F - 55.4 °F 94% 30.13 in 1.0 mi Calm Calm - N/A   Mist
3:08 AM 60.8 °F - 57.2 °F 88% 30.13 in 4.0 mi Calm Calm - N/A   Mostly Cloudy
3:22 AM 59.0 °F - 57.2 °F 94% 30.13 in 2.0 mi Calm Calm - N/A   Overcast
3:34 AM 59.0 °F - 57.2 °F 94% 30.13 in 1.0 mi Calm Calm - N/A   Mostly Cloudy
3:53 AM 59.0 °F - 57.0 °F 93% 30.10 in 2.0 mi Calm Calm - N/A   Overcast
4:00 AM 59.0 °F - 57.2 °F 94% 30.13 in 1.5 mi Calm Calm - N/A   Overcast
4:13 AM 59.0 °F - 57.2 °F 94% 30.13 in 0.5 mi Calm Calm - N/A Fog Fog
4:23 AM 59.0 °F - 57.2 °F 94% 30.13 in 2.0 mi Calm Calm - N/A   Overcast
4:30 AM 60.8 °F - 57.2 °F 88% 30.13 in 1.8 mi Calm Calm - N/A   Overcast
4:34 AM 60.8 °F - 57.2 °F 88% 30.13 in 3.0 mi Calm Calm - N/A   Overcast
4:39 AM 60.8 °F - 57.2 °F 88% 30.13 in 1.8 mi Calm Calm - N/A   Overcast
4:53 AM 60.1 °F - 60.1 °F 100% 30.11 in 0.8 mi Calm Calm - N/A   Overcast
5:26 AM 60.8 °F - 60.8 °F 100% 30.14 in 0.2 mi Calm Calm - N/A Fog Fog
5:50 AM 60.8 °F - 60.8 °F 100% 30.15 in 0.5 mi Calm Calm - N/A Fog Fog
5:53 AM 61.0 °F - 60.1 °F 97% 30.12 in 0.5 mi Calm Calm - N/A Fog Fog
6:00 AM 60.8 °F - 60.8 °F 100% 30.15 in 0.2 mi Calm Calm - N/A Fog Fog
6:19 AM 60.8 °F - 60.8 °F 100% 30.15 in 0.2 mi Calm Calm - N/A Fog Fog
6:48 AM 60.8 °F - 60.8 °F 100% 30.16 in 0.2 mi Calm Calm - N/A Fog Fog
6:53 AM 61.0 °F - 61.0 °F 100% 30.14 in 0.2 mi Calm Calm - N/A Fog Fog
7:53 AM 61.0 °F - 61.0 °F 100% 30.15 in 0.2 mi Calm Calm - N/A Fog Fog
8:11 AM 62.6 °F - 60.8 °F 94% 30.17 in 0.5 mi SSE 3.5 mph - N/A Fog Fog
8:37 AM 62.6 °F - 60.8 °F 94% 30.17 in 1.0 mi Calm Calm - N/A   Overcast
8:53 AM 62.1 °F - 61.0 °F 96% 30.15 in 1.0 mi Calm Calm - N/A   Overcast
9:25 AM 66.2 °F - 62.6 °F 88% 30.16 in 6.0 mi Calm Calm - N/A   Haze
9:53 AM 70.0 °F - 62.1 °F 76% 30.14 in 7.0 mi Calm Calm - N/A   Scattered Clouds
10:53 AM 77.0 °F - 64.0 °F 64% 30.12 in 9.0 mi Calm Calm - N/A   Clear
11:53 AM 80.1 °F 81.1 °F 61.0 °F 52% 30.11 in 10.0 mi Calm Calm - N/A   Clear
12:53 PM 82.9 °F 83.7 °F 62.1 °F 49% 30.08 in 10.0 mi South 5.8 mph - N/A   Clear
1:53 PM 84.0 °F 84.5 °F 62.1 °F 47% 30.07 in 10.0 mi South 6.9 mph - N/A   Clear
2:53 PM 88.0 °F 87.9 °F 61.0 °F 40% 30.05 in 10.0 mi West 8.1 mph - N/A   Clear
3:53 PM 86.0 °F 85.7 °F 60.1 °F 41% 30.03 in 10.0 mi WSW 8.1 mph - N/A   Partly Cloudy
4:53 PM 86.0 °F 85.4 °F 59.0 °F 40% 30.02 in 10.0 mi WSW 6.9 mph - N/A   Clear
5:53 PM 84.0 °F 84.0 °F 60.1 °F 44% 30.01 in 10.0 mi WSW 6.9 mph - N/A   Clear
6:53 PM 78.1 °F - 66.0 °F 66% 30.00 in 10.0 mi South 5.8 mph - N/A   Clear
7:53 PM 70.0 °F - 64.9 °F 84% 30.00 in 8.0 mi Calm Calm - N/A   Clear
8:53 PM 71.1 °F - 64.9 °F 81% 30.01 in 9.0 mi Calm Calm - N/A   Clear
9:53 PM 68.0 °F - 63.0 °F 84% 30.00 in 9.0 mi South 5.8 mph - N/A   Clear
10:53 PM 64.9 °F - 62.1 °F 90% 30.00 in 7.0 mi NNE 3.5 mph - N/A   Clear
11:53 PM 66.0 °F - 61.0 °F 84% 30.00 in 8.0 mi South 4.6 mph - N/A   Clear